EW6246 Weather Reports


Display with metric or nautical units.
time (UTC)temp
F
wind
direction
speed
MPH
gust
MPH
rain 1hr
in
rain 24hr
in
rain mn
in
humidity
%
barometer
mb
20260502224216 73 352 2.0 2.0 0.00 0.02 0.02 83 1017.3
20260502223714 73 300 1.0 1.0 0.00 0.02 0.02 82 1017.3
20260502223212 73 288 1.0 1.0 0.00 0.02 0.02 83 1017.2
20260502222710 73 272 1.0 1.0 0.00 0.02 0.02 83 1017.4
20260502222206 74 274 1.0 1.0 0.00 0.02 0.02 84 1017.2
20260502221701 74 305 0.0 1.0 0.00 0.02 0.02 84 1017.3
20260502221159 75 291 0.0 0.0 0.00 0.02 0.02 81 1017.1
20260502220654 75 297 1.0 1.0 0.00 0.02 0.02 80 1017.1
20260502220151 75 281 1.0 2.0 0.00 0.02 0.02 80 1017.0
20260502215648 75 281 2.0 2.0 0.00 0.02 0.02 80 1016.7
20260502215145 76 286 2.0 3.0 0.00 0.02 0.02 81 1016.9
20260502214642 76 271 1.0 1.0 0.00 0.02 0.02 82 1016.4
20260502214139 76 343 2.0 2.0 0.00 0.02 0.02 81 1016.6
20260502213636 77 6 5.0 7.0 0.00 0.02 0.02 81 1016.4
20260502213134 77 323 1.0 1.0 0.00 0.02 0.02 83 1016.3
20260502212633 77 69 2.0 3.0 0.00 0.02 0.02 83 1016.3
20260502212131 76 227 2.0 3.0 0.00 0.02 0.02 83 1016.2
20260502211626 76 148 2.0 3.0 0.00 0.02 0.02 84 1016.1
20260502211123 78 257 3.0 3.0 0.00 0.02 0.02 80 1016.0
20260502210620 78 268 1.0 1.0 0.00 0.02 0.02 80 1015.9
20260502210112 78 296 1.0 1.0 0.00 0.02 0.02 80 1015.8
20260502205608 78 261 2.0 3.0 0.00 0.02 0.02 80 1016.0
20260502205106 79 122 3.0 3.0 0.00 0.02 0.02 79 1016.1
20260502204602 78 210 1.0 1.0 0.00 0.02 0.02 81 1015.8
20260502204100 78 118 1.0 1.0 0.00 0.02 0.02 80 1015.8
20260502203557 79 339 2.0 6.0 0.00 0.02 0.02 79 1016.0
20260502203054 79 339 1.0 2.0 0.00 0.02 0.02 78 1015.8
20260502202550 80 237 3.0 3.0 0.00 0.02 0.02 80 1015.8
20260502202048 79 19 0.0 0.0 0.00 0.02 0.02 79 1016.0
20260502201544 79 304 2.0 7.0 0.00 0.02 0.02 79 1015.9
20260502201041 79 72 1.0 1.0 0.00 0.02 0.02 80 1015.9
20260502200536 79 275 3.0 3.0 0.00 0.02 0.02 81 1015.9
20260502200035 79 284 2.0 3.0 0.00 0.02 0.02 81 1016.0
20260502195532 79 299 1.0 1.0 0.00 0.02 0.02 82 1016.0
20260502195028 80 305 1.0 2.0 0.00 0.02 0.02 79 1016.0
20260502194525 79 12 2.0 3.0 0.00 0.02 0.02 80 1015.9
20260502194021 79 305 3.0 6.0 0.00 0.02 0.02 79 1015.7
20260502193518 79 84 3.0 5.0 0.00 0.02 0.02 80 1016.0
20260502193015 80 329 2.0 2.0 0.00 0.02 0.02 80 1015.9
20260502192510 79 19 5.0 6.0 0.00 0.02 0.02 81 1015.9
20260502192008 78 96 2.0 2.0 0.00 0.02 0.02 82 1016.1
20260502191500 79 8 5.0 8.0 0.00 0.02 0.02 81 1016.3
20260502190957 79 292 2.0 2.0 0.00 0.02 0.02 80 1016.2
20260502190454 78 4 3.0 6.0 0.00 0.02 0.02 83 1016.3
20260502185950 79 347 3.0 6.0 0.00 0.02 0.02 83 1016.4
20260502185446 81 0 1.0 2.0 0.00 0.02 0.02 79 1016.4
20260502184943 81 48 3.0 3.0 0.00 0.02 0.02 80 1016.3
20260502184438 81 291 1.0 2.0 0.00 0.02 0.02 80 1016.7
20260502183935 80 66 2.0 2.0 0.00 0.02 0.02 80 1016.9
20260502183431 79 307 0.0 1.0 0.00 0.02 0.02 87 1016.7
20260502182926 77 7 2.0 2.0 0.00 0.02 0.02 86 1016.6
20260502182422 77 105 3.0 5.0 0.00 0.02 0.02 86 1017.0
20260502181918 76 52 2.0 3.0 0.00 0.02 0.02 86 1017.1
20260502181417 75 137 5.0 6.0 0.00 0.02 0.02 88 1017.1
20260502180914 77 85 3.0 7.0 0.00 0.02 0.02 87 1017.1
20260502180406 78 293 3.0 3.0 0.00 0.02 0.02 85 1017.2
20260502170325 77 257 3.0 5.0 0.00 0.01 0.01 86 1017.9
20260502164312 80 4 4.0 6.0 0.00 0.01 0.01 80 1018.0
20260502163808 80 53 3.0 3.0 0.00 0.01 0.01 78 1018.2
20260502163304 80 89 3.0 8.0 0.00 0.01 0.01 80 1018.2
20260502162801 81 309 0.0 1.0 0.00 0.01 0.01 77 1018.0
20260502162253 81 321 1.0 1.0 0.00 0.01 0.01 77 1018.2
20260502161749 80 346 3.0 3.0 0.00 0.01 0.01 75 1018.4
20260502161245 82 336 2.0 2.0 0.00 0.01 0.01 74 1018.2
20260502160743 82 334 3.0 5.0 0.00 0.01 0.01 73 1018.5
20260502160242 80 315 1.0 1.0 0.00 0.01 0.01 74 1018.4
20260502152206 83 307 2.0 2.0 0.00 0.01 0.01 64 1019.1
20260502151704 82 305 1.0 2.0 0.00 0.01 0.01 71 1019.0
20260502151201 81 265 3.0 3.0 0.00 0.01 0.01 70 1019.1
20260502150658 80 245 3.0 3.0 0.00 0.01 0.01 70 1019.0
20260502150154 81 250 1.0 2.0 0.00 0.01 0.01 68 1019.0
20260502140118 79 301 0.0 0.0 0.00 0.01 0.01 70 1019.1
20260502130543 75 295 2.0 2.0 0.00 0.01 0.01 81 1018.5
20260502123526 76 286 1.0 1.0 0.00 0.01 0.01 80 1018.2
20260502123023 75 288 0.0 0.0 0.00 0.01 0.01 76 1018.3
20260502122519 76 288 0.0 0.0 0.00 0.01 0.01 72 1018.2
20260502122017 76 289 0.0 1.0 0.00 0.01 0.01 74 1018.0
20260502121514 75 288 0.0 0.0 0.00 0.01 0.01 75 1018.0
20260502121011 75 288 1.0 2.0 0.00 0.01 0.01 80 1017.9
20260502120508 75 296 0.0 0.0 0.00 0.01 0.01 75 1018.0
20260502115502 71 294 0.0 0.0 0.00 0.01 0.01 77 1017.9
20260502114958 70 298 1.0 1.0 0.00 0.01 0.01 81 1017.8
20260502114455 70 302 0.0 0.0 0.00 0.01 0.01 83 1017.8
20260502113952 68 304 1.0 1.0 0.00 0.01 0.01 84 1017.8
20260502113449 69 289 0.0 0.0 0.00 0.01 0.01 87 1017.5
20260502112948 68 289 0.0 0.0 0.00 0.01 0.01 89 1017.4
20260502112445 66 299 1.0 1.0 0.00 0.01 0.01 91 1017.5
20260502111942 64 302 0.0 0.0 0.00 0.01 0.01 93 1017.4
20260502111440 64 294 0.0 0.0 0.00 0.01 0.01 94 1017.3
20260502110937 64 300 0.0 0.0 0.00 0.01 0.01 97 1017.2
20260502110435 63 309 0.0 0.0 0.00 0.01 0.01 98 1017.3
20260502105931 62 300 0.0 0.0 0.00 0.01 0.01 98 1017.0
20260502105429 62 298 0.0 0.0 0.00 0.01 0.01 98 1017.0
20260502104927 61 297 0.0 0.0 0.00 0.01 0.01 99 1017.3
20260502104424 61 295 0.0 0.0 0.00 0.01 0.01 99 1017.1
20260502103921 61 296 0.0 0.0 0.00 0.01 0.01 99 1017.0
20260502103419 60 317 1.0 1.0 0.00 0.01 0.01 99 1017.0
20260502102915 60 304 0.0 0.0 0.00 0.01 0.01 99 1017.0
20260502102412 60 304 0.0 0.0 0.00 0.01 0.01 99 1017.0
20260502101909 60 304 0.0 0.0 0.00 0.01 0.01 99 1016.9
20260502101408 60 321 1.0 1.0 0.00 0.01 0.01 99 1016.7
20260502100905 60 305 0.0 0.0 0.00 0.01 0.01 99 1017.0
20260502100405 60 296 0.0 0.0 0.00 0.01 0.01 99 1016.9
20260502091338 61 306 0.0 0.0 0.00 0.00 0.00 99 1016.2
20260502090836 61 294 1.0 1.0 0.00 0.00 0.00 99 1016.2
20260502090332 61 311 0.0 0.0 0.00 0.00 0.00 99 1016.1
20260502071227 63 304 0.0 1.0 0.00 0.00 0.00 99 1016.1
20260502070726 63 310 0.0 0.0 0.00 0.00 0.00 99 1016.1
20260502070223 63 311 0.0 0.0 0.00 0.00 0.00 99 1016.1
20260502065721 63 310 0.0 0.0 0.00 0.00 0.00 99 1016.0
20260502065219 63 310 0.0 0.0 0.00 0.00 0.00 99 1016.0
20260502064717 63 308 0.0 0.0 0.00 0.00 0.00 99 1016.1
20260502064215 63 304 0.0 0.0 0.00 0.00 0.00 99 1016.2
20260502063712 63 306 0.0 0.0 0.00 0.00 0.00 99 1016.1
20260502063210 63 303 0.0 0.0 0.00 0.00 0.00 99 1016.1
20260502062706 63 302 0.0 0.0 0.00 0.00 0.00 99 1016.0
20260502062204 63 302 0.0 1.0 0.00 0.00 0.00 99 1016.2
20260502061703 63 293 0.0 0.0 0.00 0.00 0.00 99 1016.2
20260502061159 63 293 0.0 0.0 0.00 0.00 0.00 99 1016.2
20260502060655 63 293 0.0 0.0 0.00 0.00 0.00 99 1016.0
20260502060151 64 293 0.0 0.0 0.00 0.00 0.00 99 1016.3
20260502055649 64 293 0.0 0.0 0.00 0.00 0.00 99 1016.5
20260502055147 64 293 0.0 0.0 0.00 0.00 0.00 99 1016.4
20260502054646 64 293 0.0 0.0 0.00 0.00 0.00 99 1016.5
20260502054143 64 293 0.0 0.0 0.00 0.00 0.00 99 1016.6
20260502053640 64 293 0.0 0.0 0.00 0.00 0.00 99 1016.4
20260502053137 64 293 0.0 0.0 0.00 0.00 0.00 99 1016.5
20260502052635 64 307 0.0 0.0 0.00 0.00 0.00 99 1016.6
20260502052133 64 311 0.0 0.0 0.00 0.00 0.00 99 1016.4
20260502051631 64 319 0.0 0.0 0.00 0.00 0.00 99 1016.4
20260502051129 64 308 0.0 0.0 0.00 0.00 0.00 99 1016.7
20260502050625 64 308 0.0 0.0 0.00 0.00 0.00 99 1016.6
20260502050122 64 307 0.0 0.0 0.00 0.00 0.00 99 1016.7
20260502045618 64 306 0.0 0.0 0.00 0.00 0.00 99 1017.0
20260502045115 64 313 0.0 0.0 0.00 0.00 0.00 99 1017.1
20260502044612 64 309 0.0 0.0 0.00 0.00 0.00 99 1017.1
20260502044109 64 308 0.0 0.0 0.00 0.00 0.00 99 1017.1
20260502043606 64 307 0.0 0.0 0.00 0.00 0.00 99 1017.2
20260502043102 64 305 1.0 1.0 0.00 0.00 0.00 99 1017.2
20260502042557 64 313 0.0 0.0 0.00 0.00 0.00 99 1017.2
20260502042055 64 309 0.0 0.0 0.00 0.00 0.00 99 1017.4
20260502041553 64 312 0.0 0.0 0.00 0.00 0.00 99 1017.4
20260502041049 64 313 0.0 0.0 0.00 0.00 0.00 99 1017.8
20260502040546 64 313 0.0 0.0 0.00 0.00 0.00 99 1017.7
20260502040043 64 316 0.0 0.0 0.00 1.40 1.40 99 1017.7
20260502035539 64 306 0.0 0.0 0.00 1.40 1.40 99 1017.6
20260502035037 65 312 0.0 0.0 0.00 1.40 1.40 99 1017.8
20260502034535 65 312 0.0 0.0 0.00 1.40 1.40 99 1017.8
20260502034032 65 312 0.0 0.0 0.00 1.40 1.40 99 1017.7
20260502033530 66 312 0.0 0.0 0.00 1.40 1.40 99 1017.8
20260502033027 66 311 0.0 0.0 0.00 1.40 1.40 99 1017.8
20260502032523 66 312 0.0 0.0 0.00 1.40 1.40 99 1017.7
20260502032020 66 312 0.0 0.0 0.00 1.40 1.40 99 1017.6
20260502031518 66 312 0.0 0.0 0.00 1.40 1.40 99 1018.0
20260502031016 66 312 0.0 0.0 0.00 1.40 1.40 99 1017.7
20260502030514 67 312 0.0 0.0 0.00 1.40 1.40 99 1017.8
20260502030011 66 312 0.0 0.0 0.00 1.40 1.40 99 1017.7
20260502025508 67 312 0.0 0.0 0.00 1.40 1.40 99 1017.8
20260502025007 67 307 0.0 0.0 0.00 1.40 1.40 99 1017.5
20260502024503 67 306 0.0 0.0 0.00 1.40 1.40 99 1017.6
20260502023957 67 306 0.0 0.0 0.00 1.40 1.40 99 1017.6
20260502023454 67 306 0.0 0.0 0.00 1.40 1.40 99 1017.5
20260502022951 68 306 0.0 0.0 0.00 1.40 1.40 99 1017.7
20260502022447 68 306 0.0 0.0 0.00 1.40 1.40 99 1017.6
20260502021945 68 306 0.0 0.0 0.00 1.40 1.40 99 1017.4
20260502021442 68 306 0.0 0.0 0.00 1.40 1.40 99 1017.3
20260502020939 68 306 0.0 0.0 0.00 1.40 1.40 99 1017.2
20260502020437 68 306 0.0 0.0 0.00 1.40 1.40 99 1017.2
20260502015933 68 306 0.0 0.0 0.00 1.40 1.40 99 1017.0
20260502015431 68 306 0.0 0.0 0.00 1.40 1.40 99 1017.1
20260502014927 68 306 0.0 0.0 0.00 1.40 1.40 99 1017.1
20260502014424 68 311 0.0 0.0 0.00 1.40 1.40 99 1017.0
20260502013921 68 311 0.0 0.0 0.00 1.40 1.40 99 1016.9
20260502013416 69 311 0.0 0.0 0.00 1.40 1.40 99 1017.0
20260502012913 69 311 0.0 0.0 0.00 1.40 1.40 99 1016.7
20260502012411 69 312 0.0 0.0 0.00 1.40 1.40 99 1016.6
20260502011908 69 307 0.0 0.0 0.00 1.40 1.40 99 1016.9
20260502011404 69 307 0.0 0.0 0.00 1.40 1.40 99 1016.7
20260502010901 69 308 0.0 0.0 0.00 1.40 1.40 99 1016.7
20260502010358 69 306 0.0 0.0 0.00 1.40 1.40 99 1017.0
20260502005855 69 306 0.0 0.0 0.00 1.40 1.40 99 1016.6
20260502005352 69 306 0.0 0.0 0.00 1.40 1.40 99 1016.5
20260502004850 69 306 0.0 0.0 0.00 1.40 1.40 99 1016.3
20260502004345 69 306 0.0 0.0 0.07 1.40 1.40 99 1016.5
20260502003843 69 306 0.0 0.0 0.07 1.40 1.40 99 1016.3
20260502003340 69 306 0.0 0.0 0.00 1.39 1.39 99 1016.4
20260502002837 69 306 0.0 0.0 0.00 1.39 1.39 99 1016.4
20260502002334 69 306 0.0 0.0 0.00 1.39 1.39 99 1016.4
20260502001831 69 306 0.0 0.0 0.12 1.39 1.39 99 1016.6
20260502001329 69 306 0.0 0.0 0.42 1.39 1.39 99 1016.3
20260502000826 69 306 0.0 0.0 0.59 1.37 1.37 99 1016.2
20260502000325 69 307 0.0 0.0 0.52 1.34 1.34 99 1016.1
20260501235820 69 316 0.0 1.0 0.28 1.28 1.28 99 1016.2
20260501235316 69 306 1.0 1.0 0.38 1.25 1.25 99 1016.1
20260501234811 69 278 0.0 0.0 0.38 1.23 1.23 99 1016.3
20260501234309 69 283 0.0 1.0 0.47 1.20 1.20 99 1016.1
20260501233807 70 273 0.0 1.0 0.59 1.17 1.17 99 1016.0
20260501233304 70 291 0.0 0.0 1.04 1.12 1.12 99 1015.9
20260501232800 70 303 0.0 0.0 1.13 1.07 1.07 99 1016.0
20260501232257 70 291 1.0 2.0 0.47 0.95 0.95 99 1015.7
20260501231754 70 290 0.0 1.0 0.12 0.88 0.88 99 1015.7
20260501231253 70 290 0.0 0.0 0.31 0.87 0.87 99 1015.7
20260501230750 70 297 0.0 0.0 0.26 0.86 0.86 99 1015.5
20260501230249 70 301 0.0 0.0 0.07 0.83 0.83 99 1015.7
20260501225746 70 297 0.0 0.0 0.00 0.82 0.82 99 1015.6
20260501225243 70 297 0.0 0.0 0.00 0.82 0.82 99 1015.7
20260501224739 70 300 0.0 0.0 0.00 0.82 0.82 99 1015.6